{"data":{"norad_id":69022,"intl_designator":"2026-100AU","name":"HYDRA-3","alt_names":[],"object_type":"PAYLOAD","status":"ACTIVE","operator":null,"country":"SPN","launch_date":"2026-05-03","launch_site_code":"AFWTR","launch_vehicle":null,"mission":null,"orbit_class":"UNKNOWN","rcs_meters":null,"size_class":null,"mass_kg":null,"dimensions":null,"purposes":[],"wikipedia_slug":null,"has_3d_model":false,"image_url":null,"decayed_at":null,"tle_current":{"epoch":"2026-09-19T10:11:42.481536Z","epoch_age_seconds":112213,"freshness":"FRESH","line1":"1 69022U 26100AU  26262.42479724  .00003615  00000+0  16754-3 0  9995","line2":"2 69022  97.3889 158.3959 0005871  40.8707 319.2968 15.20693019 21122","mean_motion":15.20693019,"eccentricity":0.0005871,"inclination_deg":97.3889,"raan_deg":158.3959,"arg_perigee_deg":40.8707,"mean_anomaly_deg":319.2968,"bstar":0.00016754,"rev_number":2112,"period_min":94.693668084762,"perigee_km":499.70862891754,"apogee_km":507.78933944016,"semimajor_km":6881.8859841788,"source":"CELESTRAK","updated_at":"2026-09-20T09:00:24.632797Z"}}}